Time,TemperatureF,DewpointF,PressureIn,WindDirection,WindDirectionDegrees,WindSpeedMPH,WindSpeedGustMPH,Humidity,HourlyPrecipIn,Conditions,Clouds,dailyrainin,SoftwareType,DateUTC
2013-04-27 00:01:00,50.7,32.7,29.94,SSW,202,4.4,5.8,50,0.00,CLR,,0.00,WeatherDisplay:10.37,2013-04-27 06:01:00,
2013-04-27 00:06:00,50.5,33.0,29.94,South,180,4.5,5.8,51,0.00,CLR,,0.00,WeatherDisplay:10.37,2013-04-27 06:06:00,
2013-04-27 00:11:00,50.5,33.0,29.94,SSW,202,4.2,4.6,51,0.00,CLR,,0.00,WeatherDisplay:10.37,2013-04-27 06:11:00,
2013-04-27 00:16:00,50.2,32.8,29.93,SW,225,3.9,4.2,51,0.00,CLR,,0.00,WeatherDisplay:10.37,2013-04-27 06:16:00,
2013-04-27 00:21:00,50.5,33.0,29.93,SSW,202,4.5,4.7,51,0.00,CLR,,0.00,WeatherDisplay:10.37,2013-04-27 06:21:00,
2013-04-27 00:26:00,50.2,32.8,29.93,SSW,202,2.2,2.7,51,0.00,CLR,,0.00,WeatherDisplay:10.37,2013-04-27 06:26:00,
2013-04-27 00:31:00,50.0,33.1,29.93,SSE,158,1.7,2.2,52,0.00,CLR,,0.00,WeatherDisplay:10.37,2013-04-27 06:31:00,
2013-04-27 00:36:00,49.8,32.9,29.93,SE,135,2.0,2.3,52,0.00,CLR,,0.00,WeatherDisplay:10.37,2013-04-27 06:36:00,
2013-04-27 00:41:00,49.6,33.2,29.93,SSE,158,1.4,1.4,53,0.00,CLR,,0.00,WeatherDisplay:10.37,2013-04-27 06:41:00,
2013-04-27 00:46:00,50.4,33.4,29.93,SSE,158,2.1,2.3,52,0.00,CLR,,0.00,WeatherDisplay:10.37,2013-04-27 06:46:00,
2013-04-27 00:51:00,49.8,32.9,29.93,East,90,1.6,1.6,52,0.00,CLR,,0.00,WeatherDisplay:10.37,2013-04-27 06:51:00,
2013-04-27 00:56:00,49.1,32.7,29.93,WSW,248,1.3,2.7,53,0.00,CLR,,0.00,WeatherDisplay:10.37,2013-04-27 06:56:00,
2013-04-27 01:01:00,49.3,32.9,29.93,WNW,292,0.0,0.0,53,0.00,CLR,,0.00,WeatherDisplay:10.37,2013-04-27 07:01:00,
2013-04-27 01:06:00,48.7,32.8,29.92,NNE,22,0.5,1.7,54,0.00,CLR,,0.00,WeatherDisplay:10.37,2013-04-27 07:06:00,
2013-04-27 01:11:00,48.6,32.7,29.92,North,360,0.0,0.0,54,0.00,CLR,,0.00,WeatherDisplay:10.37,2013-04-27 07:11:00,
2013-04-27 01:16:00,48.2,32.8,29.92,South,180,0.3,0.0,55,0.00,CLR,,0.00,WeatherDisplay:10.37,2013-04-27 07:16:00,
2013-04-27 01:21:00,48.4,32.5,29.92,North,360,1.7,1.7,54,0.00,CLR,,0.00,WeatherDisplay:10.37,2013-04-27 07:21:00,
2013-04-27 01:26:00,48.9,32.5,29.92,SSE,158,2.8,4.2,53,0.00,CLR,,0.00,WeatherDisplay:10.37,2013-04-27 07:26:00,
2013-04-27 01:31:00,49.1,32.7,29.92,SSE,158,1.5,2.3,53,0.00,CLR,,0.00,WeatherDisplay:10.37,2013-04-27 07:31:00,
2013-04-27 01:36:00,48.7,32.8,29.92,SSE,158,1.8,2.2,54,0.00,CLR,,0.00,WeatherDisplay:10.37,2013-04-27 07:36:00,
2013-04-27 01:42:00,49.1,33.2,29.91,SSE,158,2.0,2.3,54,0.00,CLR,,0.00,WeatherDisplay:10.37,2013-04-27 07:42:00,
2013-04-27 01:47:00,49.5,33.1,29.91,South,180,3.5,3.5,53,0.00,CLR,,0.00,WeatherDisplay:10.37,2013-04-27 07:47:00,
2013-04-27 01:52:00,48.7,32.8,29.91,NW,315,1.4,1.4,54,0.00,CLR,,0.00,WeatherDisplay:10.37,2013-04-27 07:52:00,
2013-04-27 01:57:00,48.7,33.2,29.91,SSE,158,2.6,3.5,55,0.00,CLR,,0.00,WeatherDisplay:10.37,2013-04-27 07:57:00,
2013-04-27 02:02:00,48.0,33.5,29.91,NE,45,1.4,1.7,57,0.00,CLR,,0.00,WeatherDisplay:10.37,2013-04-27 08:02:00,
2013-04-27 02:07:00,47.8,32.9,29.91,NNE,22,1.5,3.2,56,0.00,CLR,,0.00,WeatherDisplay:10.37,2013-04-27 08:07:00,
2013-04-27 02:12:00,48.0,33.0,29.91,SSE,158,1.1,2.7,56,0.00,CLR,,0.00,WeatherDisplay:10.37,2013-04-27 08:12:00,
2013-04-27 02:17:00,48.2,33.2,29.91,SSE,158,2.5,3.5,56,0.00,CLR,,0.00,WeatherDisplay:10.37,2013-04-27 08:17:00,
2013-04-27 02:22:00,48.4,33.4,29.91,SSE,158,1.9,2.3,56,0.00,CLR,,0.00,WeatherDisplay:10.37,2013-04-27 08:22:00,
2013-04-27 02:27:00,48.0,33.0,29.91,NNE,22,0.1,1.1,56,0.00,CLR,,0.00,WeatherDisplay:10.37,2013-04-27 08:27:00,
2013-04-27 02:32:00,48.0,33.0,29.90,SSE,158,2.1,2.3,56,0.00,CLR,,0.00,WeatherDisplay:10.37,2013-04-27 08:32:00,
2013-04-27 02:37:00,47.3,33.7,29.90,East,90,0.1,1.1,59,0.00,CLR,,0.00,WeatherDisplay:10.37,2013-04-27 08:37:00,
2013-04-27 02:42:00,47.1,33.1,29.90,North,360,0.0,0.0,58,0.00,CLR,,0.00,WeatherDisplay:10.37,2013-04-27 08:42:00,
2013-04-27 02:47:00,46.9,32.9,29.90,ESE,112,0.6,1.1,58,0.00,CLR,,0.00,WeatherDisplay:10.37,2013-04-27 08:47:00,
2013-04-27 02:52:00,46.6,33.0,29.90,South,180,0.0,0.0,59,0.00,CLR,,0.00,WeatherDisplay:10.37,2013-04-27 08:52:00,
2013-04-27 02:57:00,46.4,33.3,29.90,East,90,0.0,0.0,60,0.00,CLR,,0.00,WeatherDisplay:10.37,2013-04-27 08:57:00,
2013-04-27 03:02:00,46.2,33.5,29.90,ENE,68,0.0,0.0,61,0.00,CLR,,0.00,WeatherDisplay:10.37,2013-04-27 09:02:00,
2013-04-27 03:07:00,46.0,33.7,29.89,ESE,112,0.0,0.0,62,0.00,CLR,,0.00,WeatherDisplay:10.37,2013-04-27 09:07:00,
2013-04-27 03:12:00,45.9,33.2,29.89,WNW,292,1.2,1.7,61,0.00,CLR,,0.00,WeatherDisplay:10.37,2013-04-27 09:12:00,
2013-04-27 03:17:00,46.0,33.3,29.89,WSW,248,3.2,4.6,61,0.00,CLR,,0.00,WeatherDisplay:10.37,2013-04-27 09:17:00,
2013-04-27 03:22:00,47.8,33.3,29.89,SW,225,4.6,5.8,57,0.00,CLR,,0.00,WeatherDisplay:10.37,2013-04-27 09:22:00,
2013-04-27 03:27:00,49.1,33.2,29.89,SW,225,5.0,5.8,54,0.00,CLR,,0.00,WeatherDisplay:10.37,2013-04-27 09:27:00,
2013-04-27 03:32:00,50.0,33.5,29.89,SW,225,5.7,5.8,53,0.00,CLR,,0.00,WeatherDisplay:10.37,2013-04-27 09:32:00,
2013-04-27 03:37:00,49.8,33.3,29.89,West,270,3.1,4.6,53,0.00,CLR,,0.00,WeatherDisplay:10.37,2013-04-27 09:37:00,
2013-04-27 03:42:00,49.3,32.9,29.89,NNW,338,2.4,2.4,53,0.00,CLR,,0.00,WeatherDisplay:10.37,2013-04-27 09:42:00,
2013-04-27 03:47:00,48.7,33.2,29.89,ESE,112,1.4,1.7,55,0.00,CLR,,0.00,WeatherDisplay:10.37,2013-04-27 09:47:00,
2013-04-27 03:52:00,48.2,32.8,29.89,WSW,248,1.5,2.3,55,0.00,CLR,,0.00,WeatherDisplay:10.37,2013-04-27 09:52:00,
2013-04-27 03:57:00,47.8,33.3,29.89,ENE,68,0.3,1.1,57,0.00,CLR,,0.00,WeatherDisplay:10.37,2013-04-27 09:57:00,
2013-04-27 04:02:00,47.5,33.0,29.89,West,270,2.1,2.7,57,0.00,CLR,,0.00,WeatherDisplay:10.37,2013-04-27 10:02:00,
2013-04-27 04:07:00,48.0,33.5,29.88,SW,225,3.5,4.6,57,0.00,CLR,,0.00,WeatherDisplay:10.37,2013-04-27 10:07:00,
2013-04-27 04:12:00,49.1,33.6,29.88,WSW,248,6.1,6.9,55,0.00,CLR,,0.00,WeatherDisplay:10.37,2013-04-27 10:12:00,
2013-04-27 04:17:00,49.1,33.2,29.88,SW,225,5.4,6.9,54,0.00,CLR,,0.00,WeatherDisplay:10.37,2013-04-27 10:17:00,
2013-04-27 04:22:00,49.6,33.2,29.88,SW,225,5.4,6.3,53,0.00,CLR,,0.00,WeatherDisplay:10.37,2013-04-27 10:22:00,
2013-04-27 04:27:00,49.1,33.2,29.88,WSW,248,2.5,3.5,54,0.00,CLR,,0.00,WeatherDisplay:10.37,2013-04-27 10:27:00,
2013-04-27 04:32:00,48.9,33.4,29.88,SW,225,3.4,3.7,55,0.00,CLR,,0.00,WeatherDisplay:10.37,2013-04-27 10:32:00,
2013-04-27 04:37:00,48.6,34.0,29.88,West,270,4.8,5.8,57,0.00,CLR,,0.00,WeatherDisplay:10.37,2013-04-27 10:37:00,
2013-04-27 04:42:00,48.6,33.6,29.89,WSW,248,4.1,4.6,56,0.00,CLR,,0.00,WeatherDisplay:10.37,2013-04-27 10:42:00,
2013-04-27 04:47:00,48.0,33.5,29.89,WSW,248,4.7,5.8,57,0.00,CLR,,0.00,WeatherDisplay:10.37,2013-04-27 10:47:00,
2013-04-27 04:52:00,47.1,33.5,29.89,WSW,248,5.0,5.8,59,0.00,CLR,,0.00,WeatherDisplay:10.37,2013-04-27 10:52:00,
2013-04-27 04:57:00,47.1,33.5,29.89,SW,225,7.0,8.1,59,0.00,CLR,,0.00,WeatherDisplay:10.37,2013-04-27 10:57:00,
2013-04-27 05:02:00,47.1,33.9,29.89,SW,225,6.3,6.9,60,0.00,CLR,,0.00,WeatherDisplay:10.37,2013-04-27 11:02:00,
2013-04-27 05:07:00,46.9,34.1,29.88,SSW,202,5.5,5.8,61,0.00,CLR,,0.00,WeatherDisplay:10.37,2013-04-27 11:07:00,
2013-04-27 05:12:00,46.4,34.1,29.88,WSW,248,4.9,5.8,62,0.00,CLR,,0.00,WeatherDisplay:10.37,2013-04-27 11:12:00,
2013-04-27 05:17:00,45.9,34.0,29.88,WSW,248,3.6,4.6,63,0.00,CLR,,0.00,WeatherDisplay:10.37,2013-04-27 11:17:00,
2013-04-27 05:22:00,45.5,34.0,29.88,WSW,248,2.3,2.7,64,0.00,CLR,,0.00,WeatherDisplay:10.37,2013-04-27 11:22:00,
2013-04-27 05:27:00,45.3,33.8,29.88,West,270,2.2,2.7,64,0.00,CLR,,0.00,WeatherDisplay:10.37,2013-04-27 11:27:00,
2013-04-27 05:32:00,45.0,33.9,29.88,WSW,248,2.4,2.7,65,0.00,CLR,,0.00,WeatherDisplay:10.37,2013-04-27 11:32:00,
2013-04-27 05:37:00,45.0,33.9,29.88,West,270,2.0,2.3,65,0.00,CLR,,0.00,WeatherDisplay:10.37,2013-04-27 11:37:00,
2013-04-27 05:42:00,44.6,33.9,29.88,WSW,248,2.3,2.3,66,0.00,CLR,,0.00,WeatherDisplay:10.37,2013-04-27 11:42:00,
2013-04-27 05:47:00,44.4,34.1,29.88,WSW,248,2.8,3.5,67,0.00,CLR,,0.00,WeatherDisplay:10.37,2013-04-27 11:47:00,
2013-04-27 05:52:00,44.4,35.2,29.88,SW,225,2.9,3.5,70,0.00,CLR,,0.00,WeatherDisplay:10.37,2013-04-27 11:52:00,
2013-04-27 05:57:00,44.2,34.3,29.88,West,270,2.6,3.5,68,0.00,CLR,,0.00,WeatherDisplay:10.37,2013-04-27 11:57:00,
2013-04-27 06:02:00,44.4,34.1,29.88,WSW,248,3.5,4.2,67,0.00,CLR,,0.00,WeatherDisplay:10.37,2013-04-27 12:02:00,
2013-04-27 06:07:00,45.0,34.3,29.88,SW,225,3.0,3.5,66,0.00,CLR,,0.00,WeatherDisplay:10.37,2013-04-27 12:07:00,
2013-04-27 06:12:00,45.1,34.0,29.88,West,270,3.2,4.6,65,0.00,CLR,,0.00,WeatherDisplay:10.37,2013-04-27 12:12:00,
2013-04-27 06:17:00,45.3,34.2,29.89,WSW,248,3.5,4.6,65,0.00,CLR,,0.00,WeatherDisplay:10.37,2013-04-27 12:17:00,
2013-04-27 06:22:00,45.3,34.2,29.89,WSW,248,3.9,4.6,65,0.00,CLR,,0.00,WeatherDisplay:10.37,2013-04-27 12:22:00,
2013-04-27 06:27:00,45.5,34.4,29.89,WSW,248,4.3,5.3,65,0.00,CLR,,0.00,WeatherDisplay:10.37,2013-04-27 12:27:00,
2013-04-27 06:32:00,45.7,34.6,29.88,WSW,248,3.9,4.6,65,0.00,CLR,,0.00,WeatherDisplay:10.37,2013-04-27 12:32:00,
2013-04-27 06:37:00,45.9,34.8,29.88,SW,225,6.2,6.9,65,0.00,CLR,,0.00,WeatherDisplay:10.37,2013-04-27 12:37:00,
2013-04-27 06:42:00,46.2,35.1,29.88,West,270,6.0,6.3,65,0.00,CLR,,0.00,WeatherDisplay:10.37,2013-04-27 12:42:00,
2013-04-27 06:47:00,46.6,35.5,29.88,SW,225,3.0,3.5,65,0.00,CLR,,0.00,WeatherDisplay:10.37,2013-04-27 12:47:00,
2013-04-27 06:52:00,47.5,35.9,29.89,West,270,3.8,4.6,64,0.00,CLR,,0.00,WeatherDisplay:10.37,2013-04-27 12:52:00,
2013-04-27 06:57:00,47.7,36.1,29.89,WSW,248,4.0,4.6,64,0.00,CLR,,0.00,WeatherDisplay:10.37,2013-04-27 12:57:00,
2013-04-27 07:03:00,48.0,35.6,29.89,WSW,248,4.1,5.8,62,0.00,CLR,,0.00,WeatherDisplay:10.37,2013-04-27 13:03:00,
2013-04-27 07:08:00,48.7,35.8,29.89,SW,225,4.0,4.6,61,0.00,CLR,,0.00,WeatherDisplay:10.37,2013-04-27 13:08:00,
2013-04-27 07:13:00,49.8,36.0,29.89,WSW,248,4.3,4.6,59,0.00,CLR,,0.00,WeatherDisplay:10.37,2013-04-27 13:13:00,
2013-04-27 07:18:00,50.5,36.7,29.89,SW,225,4.2,5.8,59,0.00,CLR,,0.00,WeatherDisplay:10.37,2013-04-27 13:18:00,
2013-04-27 07:23:00,51.3,36.6,29.89,SW,225,6.1,6.9,57,0.00,CLR,,0.00,WeatherDisplay:10.37,2013-04-27 13:23:00,
2013-04-27 07:28:00,51.6,36.4,29.89,SW,225,7.8,8.1,56,0.00,CLR,,0.00,WeatherDisplay:10.37,2013-04-27 13:28:00,
2013-04-27 07:33:00,51.8,36.6,29.89,SSW,202,6.2,9.2,56,0.00,CLR,,0.00,WeatherDisplay:10.37,2013-04-27 13:33:00,
2013-04-27 07:38:00,52.0,36.3,29.89,SW,225,9.4,10.9,55,0.00,CLR,,0.00,WeatherDisplay:10.37,2013-04-27 13:38:00,
2013-04-27 07:43:00,52.5,36.8,29.89,SW,225,5.9,10.4,55,0.00,CLR,,0.00,WeatherDisplay:10.37,2013-04-27 13:43:00,
2013-04-27 07:48:00,53.4,37.2,29.89,WSW,248,5.6,8.3,54,0.00,CLR,,0.00,WeatherDisplay:10.37,2013-04-27 13:48:00,
2013-04-27 07:53:00,54.1,37.3,29.89,West,270,7.5,10.4,53,0.00,CLR,,0.00,WeatherDisplay:10.37,2013-04-27 13:53:00,
2013-04-27 07:58:00,54.7,37.4,29.89,SW,225,9.7,10.4,52,0.00,CLR,,0.00,WeatherDisplay:10.37,2013-04-27 13:58:00,
2013-04-27 08:03:00,55.8,37.9,29.89,SW,225,7.5,9.2,51,0.00,CLR,,0.00,WeatherDisplay:10.37,2013-04-27 14:03:00,
2013-04-27 08:08:00,56.7,38.3,29.89,WSW,248,5.1,5.8,50,0.00,CLR,,0.00,WeatherDisplay:10.37,2013-04-27 14:08:00,
2013-04-27 08:13:00,57.6,38.0,29.89,WSW,248,7.5,9.2,48,0.00,CLR,,0.00,WeatherDisplay:10.37,2013-04-27 14:13:00,
2013-04-27 08:18:00,58.5,37.8,29.89,SW,225,8.1,9.4,46,0.00,CLR,,0.00,WeatherDisplay:10.37,2013-04-27 14:18:00,
2013-04-27 08:23:00,59.2,37.9,29.89,WSW,248,9.7,11.5,45,0.00,CLR,,0.00,WeatherDisplay:10.37,2013-04-27 14:23:00,
2013-04-27 08:28:00,59.7,38.3,29.88,West,270,5.8,10.4,45,0.00,CLR,,0.00,WeatherDisplay:10.37,2013-04-27 14:28:00,
2013-04-27 08:33:00,60.4,37.8,29.88,SSW,202,6.6,8.8,43,0.00,CLR,,0.00,WeatherDisplay:10.37,2013-04-27 14:33:00,
2013-04-27 08:38:00,61.5,38.2,29.88,SW,225,5.7,10.4,42,0.00,CLR,,0.00,WeatherDisplay:10.37,2013-04-27 14:38:00,
2013-04-27 08:43:00,62.2,38.2,29.88,West,270,6.5,10.4,41,0.00,CLR,,0.00,WeatherDisplay:10.37,2013-04-27 14:43:00,
2013-04-27 08:48:00,63.3,37.2,29.88,West,270,8.0,9.9,38,0.00,CLR,,0.00,WeatherDisplay:10.37,2013-04-27 14:48:00,
2013-04-27 08:53:00,63.9,37.8,29.88,West,270,4.9,8.1,38,0.00,CLR,,0.00,WeatherDisplay:10.37,2013-04-27 14:53:00,
2013-04-27 08:58:00,64.2,37.4,29.88,SW,225,6.4,8.1,37,0.00,CLR,,0.00,WeatherDisplay:10.37,2013-04-27 14:58:00,
2013-04-27 09:03:00,64.8,37.2,29.88,West,270,7.0,9.4,36,0.00,CLR,,0.00,WeatherDisplay:10.37,2013-04-27 15:03:00,
2013-04-27 09:08:00,64.9,37.3,29.88,West,270,6.3,8.1,36,0.00,CLR,,0.00,WeatherDisplay:10.37,2013-04-27 15:08:00,
2013-04-27 09:13:00,64.8,37.2,29.88,SW,225,8.5,10.4,36,0.00,CLR,,0.00,WeatherDisplay:10.37,2013-04-27 15:13:00,
2013-04-27 09:18:00,65.1,36.8,29.88,NE,45,8.6,11.5,35,0.00,CLR,,0.00,WeatherDisplay:10.37,2013-04-27 15:18:00,
2013-04-27 09:23:00,66.0,36.8,29.88,West,270,9.0,10.4,34,0.00,CLR,,0.00,WeatherDisplay:10.37,2013-04-27 15:23:00,
2013-04-27 09:28:00,66.2,36.2,29.88,West,270,10.0,12.7,33,0.00,CLR,,0.00,WeatherDisplay:10.37,2013-04-27 15:28:00,
2013-04-27 09:33:00,66.6,35.8,29.88,WSW,248,13.6,15.0,32,0.00,CLR,,0.00,WeatherDisplay:10.37,2013-04-27 15:33:00,
2013-04-27 09:38:00,67.1,36.2,29.88,WSW,248,11.0,16.0,32,0.00,CLR,,0.00,WeatherDisplay:10.37,2013-04-27 15:38:00,
2013-04-27 09:43:00,67.5,37.4,29.88,SW,225,6.9,10.4,33,0.00,CLR,,0.00,WeatherDisplay:10.37,2013-04-27 15:43:00,
2013-04-27 09:49:00,66.7,35.9,29.88,West,270,8.6,11.5,32,0.00,CLR,,0.00,WeatherDisplay:10.37,2013-04-27 15:49:00,
2013-04-27 09:54:00,67.1,36.2,29.88,WSW,248,9.8,11.5,32,0.00,CLR,,0.00,WeatherDisplay:10.37,2013-04-27 15:54:00,
2013-04-27 09:59:00,66.7,35.9,29.88,SW,225,9.0,12.7,32,0.00,CLR,,0.00,WeatherDisplay:10.37,2013-04-27 15:59:00,
2013-04-27 10:04:00,67.8,36.8,29.87,West,270,10.3,12.4,32,0.00,CLR,,0.00,WeatherDisplay:10.37,2013-04-27 16:04:00,
2013-04-27 10:09:00,68.5,37.5,29.87,SW,225,9.1,12.7,32,0.00,CLR,,0.00,WeatherDisplay:10.37,2013-04-27 16:09:00,
2013-04-27 10:14:00,68.7,36.8,29.87,SW,225,8.9,10.4,31,0.00,CLR,,0.00,WeatherDisplay:10.37,2013-04-27 16:14:00,
2013-04-27 10:19:00,68.0,36.2,29.87,West,270,7.7,13.8,31,0.00,CLR,,0.00,WeatherDisplay:10.37,2013-04-27 16:19:00,
2013-04-27 10:24:00,68.2,36.4,29.87,WNW,292,10.8,12.7,31,0.00,CLR,,0.00,WeatherDisplay:10.37,2013-04-27 16:24:00,
2013-04-27 10:29:00,68.7,36.8,29.87,West,270,8.4,10.4,31,0.00,CLR,,0.00,WeatherDisplay:10.37,2013-04-27 16:29:00,
2013-04-27 10:34:00,70.2,37.3,29.87,West,270,4.9,10.4,30,0.00,CLR,,0.00,WeatherDisplay:10.37,2013-04-27 16:34:00,
2013-04-27 10:39:00,70.2,36.4,29.87,NNW,338,8.4,11.5,29,0.00,CLR,,0.00,WeatherDisplay:10.37,2013-04-27 16:39:00,
2013-04-27 10:44:00,69.6,35.9,29.87,West,270,9.0,10.4,29,0.00,CLR,,0.00,WeatherDisplay:10.37,2013-04-27 16:44:00,
2013-04-27 10:49:00,70.7,36.9,29.87,West,270,6.5,8.1,29,0.00,CLR,,0.00,WeatherDisplay:10.37,2013-04-27 16:49:00,
2013-04-27 10:54:00,71.1,35.4,29.86,WNW,292,8.1,9.2,27,0.00,CLR,,0.00,WeatherDisplay:10.37,2013-04-27 16:54:00,
2013-04-27 10:59:00,70.9,36.1,29.86,SW,225,8.4,12.7,28,0.00,CLR,,0.00,WeatherDisplay:10.37,2013-04-27 16:59:00,
2013-04-27 11:04:00,71.4,36.6,29.86,West,270,7.2,10.9,28,0.00,CLR,,0.00,WeatherDisplay:10.37,2013-04-27 17:04:00,
2013-04-27 11:09:00,70.3,35.6,29.86,WSW,248,7.7,9.2,28,0.00,CLR,,0.00,WeatherDisplay:10.37,2013-04-27 17:09:00,
2013-04-27 11:14:00,70.7,36.0,29.86,West,270,7.9,10.4,28,0.00,CLR,,0.00,WeatherDisplay:10.37,2013-04-27 17:14:00,
2013-04-27 11:19:00,70.3,35.6,29.86,West,270,8.3,10.4,28,0.00,CLR,,0.00,WeatherDisplay:10.37,2013-04-27 17:19:00,
2013-04-27 11:24:00,70.3,35.6,29.86,WNW,292,6.3,8.1,28,0.00,CLR,,0.00,WeatherDisplay:10.37,2013-04-27 17:24:00,
2013-04-27 11:29:00,70.3,35.6,29.86,West,270,5.1,5.8,28,0.00,CLR,,0.00,WeatherDisplay:10.37,2013-04-27 17:29:00,
2013-04-27 11:34:00,70.2,36.4,29.86,West,270,6.7,10.4,29,0.00,CLR,,0.00,WeatherDisplay:10.37,2013-04-27 17:34:00,
2013-04-27 11:39:00,70.7,36.0,29.86,WSW,248,6.4,6.9,28,0.00,CLR,,0.00,WeatherDisplay:10.37,2013-04-27 17:39:00,
2013-04-27 11:44:00,70.7,37.7,29.86,SW,225,9.9,10.4,30,0.00,CLR,,0.00,WeatherDisplay:10.37,2013-04-27 17:44:00,
2013-04-27 11:49:00,70.2,37.3,29.86,SW,225,9.7,11.5,30,0.00,CLR,,0.00,WeatherDisplay:10.37,2013-04-27 17:49:00,
2013-04-27 11:54:00,70.0,36.3,29.85,SW,225,8.5,10.4,29,0.00,CLR,,0.00,WeatherDisplay:10.37,2013-04-27 17:54:00,
2013-04-27 11:59:00,70.2,37.3,29.85,SW,225,6.5,8.1,30,0.00,CLR,,0.00,WeatherDisplay:10.37,2013-04-27 17:59:00,
2013-04-27 12:04:00,70.5,36.7,29.85,SW,225,5.8,6.9,29,0.00,CLR,,0.00,WeatherDisplay:10.37,2013-04-27 18:04:00,
2013-04-27 12:09:00,70.3,35.6,29.85,WSW,248,6.1,8.8,28,0.00,CLR,,0.00,WeatherDisplay:10.37,2013-04-27 18:09:00,
2013-04-27 12:14:00,70.3,37.4,29.85,SW,225,5.4,8.1,30,0.00,CLR,,0.00,WeatherDisplay:10.37,2013-04-27 18:14:00,
2013-04-27 12:19:00,72.1,36.3,29.84,West,270,5.4,6.9,27,0.00,CLR,,0.00,WeatherDisplay:10.37,2013-04-27 18:19:00,
2013-04-27 12:24:00,72.9,36.0,29.84,West,270,13.0,13.0,26,0.00,CLR,,0.00,WeatherDisplay:10.37,2013-04-27 18:24:00,
2013-04-27 12:29:00,72.5,36.6,29.84,SW,225,8.5,11.5,27,0.00,CLR,,0.00,WeatherDisplay:10.37,2013-04-27 18:29:00,
2013-04-27 12:34:00,73.0,37.0,29.84,SW,225,8.0,9.4,27,0.00,CLR,,0.00,WeatherDisplay:10.37,2013-04-27 18:34:00,
2013-04-27 12:39:00,73.0,36.1,29.84,SW,225,7.1,8.3,26,0.00,CLR,,0.00,WeatherDisplay:10.37,2013-04-27 18:39:00,
2013-04-27 12:44:00,72.5,36.6,29.83,West,270,9.1,11.5,27,0.00,CLR,,0.00,WeatherDisplay:10.37,2013-04-27 18:44:00,
2013-04-27 12:49:00,73.2,37.2,29.83,SW,225,6.1,8.3,27,0.00,CLR,,0.00,WeatherDisplay:10.37,2013-04-27 18:49:00,
2013-04-27 12:54:00,73.9,36.8,29.82,West,270,7.4,10.4,26,0.00,CLR,,0.00,WeatherDisplay:10.37,2013-04-27 18:54:00,
2013-04-27 12:59:00,73.4,36.4,29.82,WSW,248,15.5,17.3,26,0.00,CLR,,0.00,WeatherDisplay:10.37,2013-04-27 18:59:00,
2013-04-27 13:04:00,73.4,35.4,29.83,South,180,5.8,9.2,25,0.00,CLR,,0.00,WeatherDisplay:10.37,2013-04-27 19:04:00,
2013-04-27 13:09:00,73.8,35.8,29.83,WNW,292,9.9,12.7,25,0.00,CLR,,0.00,WeatherDisplay:10.37,2013-04-27 19:09:00,
2013-04-27 13:14:00,74.1,36.0,29.83,WSW,248,7.3,9.4,25,0.00,CLR,,0.00,WeatherDisplay:10.37,2013-04-27 19:14:00,
2013-04-27 13:19:00,74.8,36.6,29.82,West,270,12.3,16.1,25,0.00,CLR,,0.00,WeatherDisplay:10.37,2013-04-27 19:19:00,
2013-04-27 13:24:00,74.5,35.3,29.82,WSW,248,9.0,10.4,24,0.00,CLR,,0.00,WeatherDisplay:10.37,2013-04-27 19:24:00,
2013-04-27 13:29:00,74.8,35.6,29.81,West,270,6.5,12.7,24,0.00,CLR,,0.00,WeatherDisplay:10.37,2013-04-27 19:29:00,
2013-04-27 13:34:00,74.8,35.6,29.81,WSW,248,11.5,15.0,24,0.00,CLR,,0.00,WeatherDisplay:10.37,2013-04-27 19:34:00,
2013-04-27 13:39:00,74.5,36.4,29.81,WSW,248,20.2,20.7,25,0.00,CLR,,0.00,WeatherDisplay:10.37,2013-04-27 19:39:00,
2013-04-27 13:44:00,75.2,36.9,29.81,WSW,248,7.9,20.7,25,0.00,CLR,,0.00,WeatherDisplay:10.37,2013-04-27 19:44:00,
2013-04-27 13:49:00,75.0,36.8,29.81,WSW,248,7.6,14.5,25,0.00,CLR,,0.00,WeatherDisplay:10.37,2013-04-27 19:49:00,
2013-04-27 13:54:00,74.1,36.0,29.80,SW,225,14.0,20.7,25,0.00,CLR,,0.00,WeatherDisplay:10.37,2013-04-27 19:54:00,
2013-04-27 13:59:00,74.5,36.4,29.80,SW,225,12.4,13.0,25,0.00,CLR,,0.00,WeatherDisplay:10.37,2013-04-27 19:59:00,
2013-04-27 14:04:00,76.1,36.7,29.80,West,270,9.8,10.4,24,0.00,CLR,,0.00,WeatherDisplay:10.37,2013-04-27 20:04:00,
2013-04-27 14:09:00,75.9,36.5,29.80,SSW,202,7.4,8.1,24,0.00,CLR,,0.00,WeatherDisplay:10.37,2013-04-27 20:09:00,
2013-04-27 14:14:00,74.8,35.6,29.80,West,270,12.1,13.8,24,0.00,CLR,,0.00,WeatherDisplay:10.37,2013-04-27 20:14:00,
2013-04-27 14:19:00,75.6,36.2,29.80,WSW,248,12.4,15.0,24,0.00,CLR,,0.00,WeatherDisplay:10.37,2013-04-27 20:19:00,
2013-04-27 14:24:00,74.7,35.5,29.80,WSW,248,9.2,12.7,24,0.00,CLR,,0.00,WeatherDisplay:10.37,2013-04-27 20:24:00,
2013-04-27 14:29:00,74.8,36.6,29.80,WSW,248,7.0,11.5,25,0.00,CLR,,0.00,WeatherDisplay:10.37,2013-04-27 20:29:00,
2013-04-27 14:34:00,75.6,36.2,29.80,SSE,158,19.8,23.0,24,0.00,CLR,,0.00,WeatherDisplay:10.37,2013-04-27 20:34:00,
2013-04-27 14:40:00,75.7,36.3,29.80,SW,225,11.8,15.0,24,0.00,CLR,,0.00,WeatherDisplay:10.37,2013-04-27 20:40:00,
2013-04-27 14:45:00,74.8,35.6,29.79,SW,225,11.4,15.0,24,0.00,CLR,,0.00,WeatherDisplay:10.37,2013-04-27 20:45:00,
2013-04-27 14:50:00,74.1,35.0,29.79,WSW,248,15.3,19.6,24,0.00,CLR,,0.00,WeatherDisplay:10.37,2013-04-27 20:50:00,
2013-04-27 14:55:00,73.8,35.8,29.79,SW,225,9.8,13.8,25,0.00,CLR,,0.00,WeatherDisplay:10.37,2013-04-27 20:55:00,
2013-04-27 15:00:00,74.8,36.6,29.79,SW,225,10.4,12.7,25,0.00,CLR,,0.00,WeatherDisplay:10.37,2013-04-27 21:00:00,
2013-04-27 15:05:00,75.2,35.9,29.78,SW,225,15.2,17.3,24,0.00,FEW,,0.00,WeatherDisplay:10.37,2013-04-27 21:05:00,
2013-04-27 15:10:00,75.9,36.5,29.78,SW,225,8.6,11.5,24,0.00,FEW,,0.00,WeatherDisplay:10.37,2013-04-27 21:10:00,
2013-04-27 15:15:00,76.6,36.0,29.78,SW,225,14.4,19.6,23,0.00,FEW,,0.00,WeatherDisplay:10.37,2013-04-27 21:15:00,
2013-04-27 15:20:00,75.9,35.4,29.78,WSW,248,10.8,13.0,23,0.00,FEW,,0.00,WeatherDisplay:10.37,2013-04-27 21:20:00,
2013-04-27 15:25:00,75.0,34.7,29.78,West,270,10.9,13.8,23,0.00,FEW,,0.00,WeatherDisplay:10.37,2013-04-27 21:25:00,
2013-04-27 15:30:00,76.1,35.6,29.77,SW,225,8.8,9.2,23,0.00,FEW,,0.00,WeatherDisplay:10.37,2013-04-27 21:30:00,
2013-04-27 15:35:00,76.6,36.0,29.77,WSW,248,17.7,19.6,23,0.00,FEW,,0.00,WeatherDisplay:10.37,2013-04-27 21:35:00,
2013-04-27 15:40:00,76.6,36.0,29.77,SW,225,8.9,12.7,23,0.00,FEW,,0.00,WeatherDisplay:10.37,2013-04-27 21:40:00,
2013-04-27 15:45:00,75.7,35.3,29.77,SSW,202,12.0,17.3,23,0.00,FEW,,0.00,WeatherDisplay:10.37,2013-04-27 21:45:00,
2013-04-27 15:50:00,74.8,34.5,29.77,WSW,248,15.8,17.3,23,0.00,FEW,,0.00,WeatherDisplay:10.37,2013-04-27 21:50:00,
2013-04-27 15:55:00,75.0,34.7,29.76,WSW,248,11.1,13.8,23,0.00,FEW,,0.00,WeatherDisplay:10.37,2013-04-27 21:55:00,
2013-04-27 16:00:00,75.0,34.7,29.76,WSW,248,9.6,13.0,23,0.00,FEW,,0.00,WeatherDisplay:10.37,2013-04-27 22:00:00,
2013-04-27 16:05:00,75.7,36.3,29.76,SW,225,8.4,10.4,24,0.00,FEW,,0.00,WeatherDisplay:10.37,2013-04-27 22:05:00,
2013-04-27 16:10:00,75.6,35.2,29.76,SW,225,13.2,16.1,23,0.00,FEW,,0.00,WeatherDisplay:10.37,2013-04-27 22:10:00,
2013-04-27 16:15:00,75.0,34.7,29.76,SW,225,10.3,13.8,23,0.00,FEW,,0.00,WeatherDisplay:10.37,2013-04-27 22:15:00,
2013-04-27 16:20:00,75.2,34.8,29.75,West,270,9.3,13.8,23,0.00,FEW,,0.00,WeatherDisplay:10.37,2013-04-27 22:20:00,
2013-04-27 16:25:00,74.5,35.3,29.75,SW,225,14.1,17.3,24,0.00,FEW,,0.00,WeatherDisplay:10.37,2013-04-27 22:25:00,
2013-04-27 16:30:00,74.7,35.5,29.75,WSW,248,9.3,10.4,24,0.00,FEW,,0.00,WeatherDisplay:10.37,2013-04-27 22:30:00,
2013-04-27 16:35:00,75.4,36.1,29.75,WSW,248,6.2,7.3,24,0.00,FEW,,0.00,WeatherDisplay:10.37,2013-04-27 22:35:00,
2013-04-27 16:40:00,75.4,37.1,29.75,SW,225,6.0,9.2,25,0.00,FEW,,0.00,WeatherDisplay:10.37,2013-04-27 22:40:00,
2013-04-27 16:45:00,75.4,35.0,29.75,WSW,248,11.1,13.8,23,0.00,FEW,,0.00,WeatherDisplay:10.37,2013-04-27 22:45:00,
2013-04-27 16:50:00,75.6,35.2,29.75,West,270,10.9,12.7,23,0.00,FEW,,0.00,WeatherDisplay:10.37,2013-04-27 22:50:00,
2013-04-27 16:55:00,75.7,36.3,29.75,SW,225,11.1,12.7,24,0.00,FEW,,0.00,WeatherDisplay:10.37,2013-04-27 22:55:00,
2013-04-27 17:00:00,75.6,35.2,29.75,WSW,248,10.8,15.0,23,0.00,FEW,,0.00,WeatherDisplay:10.37,2013-04-27 23:00:00,
2013-04-27 17:05:00,75.0,34.7,29.74,SW,225,9.1,11.9,23,0.00,FEW,,0.00,WeatherDisplay:10.37,2013-04-27 23:05:00,
2013-04-27 17:10:00,74.7,33.3,29.74,SW,225,14.8,20.7,22,0.00,FEW,,0.00,WeatherDisplay:10.37,2013-04-27 23:10:00,
2013-04-27 17:15:00,74.7,33.3,29.74,WSW,248,12.4,12.7,22,0.00,FEW,,0.00,WeatherDisplay:10.37,2013-04-27 23:15:00,
2013-04-27 17:20:00,74.3,33.0,29.74,West,270,6.6,8.1,22,0.00,FEW,,0.00,WeatherDisplay:10.37,2013-04-27 23:20:00,
2013-04-27 17:25:00,73.8,33.7,29.74,SW,225,9.4,12.7,23,0.00,FEW,,0.00,WeatherDisplay:10.37,2013-04-27 23:25:00,
2013-04-27 17:30:00,73.4,34.4,29.74,SW,225,7.9,9.2,24,0.00,FEW,,0.00,WeatherDisplay:10.37,2013-04-27 23:30:00,
2013-04-27 17:35:00,73.4,34.4,29.74,SW,225,8.0,10.4,24,0.00,FEW,,0.00,WeatherDisplay:10.37,2013-04-27 23:35:00,
2013-04-27 17:40:00,73.4,34.4,29.74,SW,225,9.1,9.2,24,0.00,FEW,,0.00,WeatherDisplay:10.37,2013-04-27 23:40:00,
2013-04-27 17:45:00,73.0,34.1,29.74,WSW,248,8.7,11.4,24,0.00,FEW,,0.00,WeatherDisplay:10.37,2013-04-27 23:45:00,
2013-04-27 17:50:00,73.0,34.1,29.74,SW,225,7.2,8.1,24,0.00,FEW,,0.00,WeatherDisplay:10.37,2013-04-27 23:50:00,
2013-04-27 17:55:00,73.0,35.1,29.73,SW,225,6.3,6.9,25,0.00,FEW,,0.00,WeatherDisplay:10.37,2013-04-27 23:55:00,
2013-04-27 18:00:00,72.9,35.0,29.73,West,270,5.7,6.9,25,0.00,FEW,,0.00,WeatherDisplay:10.37,2013-04-28 00:00:00,
2013-04-27 18:05:00,72.7,33.8,29.72,WSW,248,7.5,8.8,24,0.00,CLR,,0.00,WeatherDisplay:10.37,2013-04-28 00:05:00,
2013-04-27 18:10:00,72.5,34.7,29.72,SW,225,5.8,6.9,25,0.00,CLR,,0.00,WeatherDisplay:10.37,2013-04-28 00:10:00,
2013-04-27 18:15:00,72.5,33.6,29.72,WSW,248,5.4,6.9,24,0.00,CLR,,0.00,WeatherDisplay:10.37,2013-04-28 00:15:00,
2013-04-27 18:20:00,72.3,33.5,29.72,SW,225,5.2,5.8,24,0.00,CLR,,0.00,WeatherDisplay:10.37,2013-04-28 00:20:00,
2013-04-27 18:25:00,72.5,33.6,29.72,WSW,248,3.9,5.8,24,0.00,CLR,,0.00,WeatherDisplay:10.37,2013-04-28 00:25:00,
2013-04-27 18:30:00,72.5,33.6,29.72,WSW,248,5.3,5.8,24,0.00,CLR,,0.00,WeatherDisplay:10.37,2013-04-28 00:30:00,
2013-04-27 18:35:00,72.7,34.8,29.72,SW,225,3.9,5.8,25,0.00,CLR,,0.00,WeatherDisplay:10.37,2013-04-28 00:35:00,
2013-04-27 18:40:00,72.5,34.7,29.71,SW,225,4.1,4.6,25,0.00,CLR,,0.00,WeatherDisplay:10.37,2013-04-28 00:40:00,
2013-04-27 18:45:00,72.1,34.3,29.71,SW,225,3.7,4.6,25,0.00,CLR,,0.00,WeatherDisplay:10.37,2013-04-28 00:45:00,
2013-04-27 18:50:00,72.0,35.2,29.71,SW,225,3.0,4.2,26,0.00,CLR,,0.00,WeatherDisplay:10.37,2013-04-28 00:50:00,
2013-04-27 18:55:00,71.6,35.8,29.71,SSE,158,2.3,2.3,27,0.00,CLR,,0.00,WeatherDisplay:10.37,2013-04-28 00:55:00,
2013-04-27 19:00:00,71.2,35.5,29.71,South,180,1.9,2.7,27,0.00,CLR,,0.00,WeatherDisplay:10.37,2013-04-28 01:00:00,
2013-04-27 19:05:00,70.9,35.2,29.71,SSE,158,2.2,2.7,27,0.00,CLR,,0.00,WeatherDisplay:10.37,2013-04-28 01:05:00,
2013-04-27 19:10:00,70.5,35.8,29.71,SE,135,2.7,3.5,28,0.00,CLR,,0.00,WeatherDisplay:10.37,2013-04-28 01:10:00,
2013-04-27 19:15:00,70.0,35.4,29.71,ESE,112,2.8,3.5,28,0.00,CLR,,0.00,WeatherDisplay:10.37,2013-04-28 01:15:00,
2013-04-27 19:20:00,69.4,34.9,29.70,SSE,158,1.5,2.3,28,0.00,CLR,,0.00,WeatherDisplay:10.37,2013-04-28 01:20:00,
2013-04-27 19:25:00,69.1,35.5,29.70,South,180,1.2,2.3,29,0.00,CLR,,0.00,WeatherDisplay:10.37,2013-04-28 01:25:00,
2013-04-27 19:31:00,68.5,35.0,29.70,South,180,0.0,0.0,29,0.00,CLR,,0.00,WeatherDisplay:10.37,2013-04-28 01:31:00,
2013-04-27 19:35:00,67.8,35.2,29.70,SSE,158,1.2,1.2,30,0.00,CLR,,0.00,WeatherDisplay:10.37,2013-04-28 01:35:00,
2013-04-27 19:41:00,67.6,35.0,29.70,SSE,158,0.4,1.7,30,0.00,CLR,,0.00,WeatherDisplay:10.37,2013-04-28 01:41:00,
2013-04-27 19:46:00,66.7,36.7,29.70,South,180,0.0,1.1,33,0.00,CLR,,0.00,WeatherDisplay:10.37,2013-04-28 01:46:00,
2013-04-27 19:51:00,66.2,36.2,29.70,SSW,202,0.3,1.1,33,0.00,CLR,,0.00,WeatherDisplay:10.37,2013-04-28 01:51:00,
2013-04-27 19:56:00,65.5,36.4,29.70,WNW,292,0.0,0.0,34,0.00,CLR,,0.00,WeatherDisplay:10.37,2013-04-28 01:56:00,
2013-04-27 20:01:00,64.4,36.8,29.70,South,180,0.0,0.0,36,0.00,CLR,,0.00,WeatherDisplay:10.37,2013-04-28 02:01:00,
2013-04-27 20:06:00,63.1,37.7,29.70,NNW,338,1.5,1.7,39,0.00,CLR,,0.00,WeatherDisplay:10.37,2013-04-28 02:06:00,
2013-04-27 20:11:00,63.0,37.0,29.70,East,90,0.0,0.0,38,0.00,CLR,,0.00,WeatherDisplay:10.37,2013-04-28 02:11:00,
2013-04-27 20:16:00,62.2,38.8,29.70,ESE,112,1.5,1.5,42,0.00,CLR,,0.00,WeatherDisplay:10.37,2013-04-28 02:16:00,
2013-04-27 20:21:00,61.7,38.4,29.70,East,90,0.4,1.1,42,0.00,CLR,,0.00,WeatherDisplay:10.37,2013-04-28 02:21:00,
2013-04-27 20:26:00,61.2,39.1,29.70,NE,45,1.8,2.3,44,0.00,CLR,,0.00,WeatherDisplay:10.37,2013-04-28 02:26:00,
2013-04-27 20:31:00,60.8,41.0,29.70,ESE,112,2.0,2.3,48,0.00,CLR,,0.00,WeatherDisplay:10.37,2013-04-28 02:31:00,
2013-04-27 20:36:00,60.6,39.1,29.70,ENE,68,0.0,1.1,45,0.00,CLR,,0.00,WeatherDisplay:10.37,2013-04-28 02:36:00,
2013-04-27 20:41:00,60.3,38.9,29.70,NNW,338,0.0,0.0,45,0.00,CLR,,0.00,WeatherDisplay:10.37,2013-04-28 02:41:00,
2013-04-27 20:46:00,60.1,39.2,29.70,NE,45,0.0,0.0,46,0.00,CLR,,0.00,WeatherDisplay:10.37,2013-04-28 02:46:00,
2013-04-27 20:51:00,59.7,39.4,29.70,SE,135,0.0,0.0,47,0.00,CLR,,0.00,WeatherDisplay:10.37,2013-04-28 02:51:00,
2013-04-27 20:56:00,59.5,40.8,29.70,SE,135,0.0,0.0,50,0.00,CLR,,0.00,WeatherDisplay:10.37,2013-04-28 02:56:00,
2013-04-27 21:01:00,59.0,39.9,29.70,SW,225,0.0,0.0,49,0.00,CLR,,0.00,WeatherDisplay:10.37,2013-04-28 03:01:00,
2013-04-27 21:06:00,58.6,40.0,29.70,SW,225,0.0,0.0,50,0.00,CLR,,0.00,WeatherDisplay:10.37,2013-04-28 03:06:00,
2013-04-27 21:11:00,58.3,40.7,29.70,South,180,0.0,0.0,52,0.00,CLR,,0.00,WeatherDisplay:10.37,2013-04-28 03:11:00,
2013-04-27 21:16:00,57.7,42.1,29.70,SW,225,1.5,1.5,56,0.00,CLR,,0.00,WeatherDisplay:10.37,2013-04-28 03:16:00,
2013-04-27 21:21:00,57.4,42.3,29.70,SW,225,1.4,1.4,57,0.00,CLR,,0.00,WeatherDisplay:10.37,2013-04-28 03:21:00,
2013-04-27 21:26:00,57.2,39.7,29.70,South,180,0.9,1.1,52,0.00,CLR,,0.00,WeatherDisplay:10.37,2013-04-28 03:26:00,
2013-04-27 21:31:00,57.0,39.0,29.70,South,180,1.7,1.7,51,0.00,CLR,,0.00,WeatherDisplay:10.37,2013-04-28 03:31:00,
2013-04-27 21:36:00,56.8,38.9,29.70,SW,225,0.9,1.1,51,0.00,CLR,,0.00,WeatherDisplay:10.37,2013-04-28 03:36:00,
2013-04-27 21:41:00,56.5,39.6,29.70,WNW,292,0.0,0.0,53,0.00,CLR,,0.00,WeatherDisplay:10.37,2013-04-28 03:41:00,
2013-04-27 21:46:00,56.3,39.9,29.70,SW,225,0.0,0.0,54,0.00,CLR,,0.00,WeatherDisplay:10.37,2013-04-28 03:46:00,
2013-04-27 21:51:00,55.9,42.2,29.70,West,270,1.7,1.7,60,0.00,CLR,,0.00,WeatherDisplay:10.37,2013-04-28 03:51:00,
2013-04-27 21:56:00,55.8,40.8,29.70,SW,225,1.7,1.7,57,0.00,CLR,,0.00,WeatherDisplay:10.37,2013-04-28 03:56:00,
2013-04-27 22:01:00,55.4,42.6,29.70,WSW,248,2.7,2.7,62,0.00,CLR,,0.00,WeatherDisplay:10.37,2013-04-28 04:01:00,
2013-04-27 22:06:00,54.9,40.4,29.70,SW,225,2.7,2.7,58,0.00,CLR,,0.00,WeatherDisplay:10.37,2013-04-28 04:06:00,
2013-04-27 22:11:00,54.9,39.9,29.70,West,270,1.3,1.3,57,0.00,BKN,,0.00,WeatherDisplay:10.37,2013-04-28 04:11:00,
2013-04-27 22:16:00,55.0,39.1,29.70,West,270,2.2,2.3,55,0.00,BKN,,0.00,WeatherDisplay:10.37,2013-04-28 04:16:00,
2013-04-27 22:21:00,55.0,39.6,29.70,SW,225,1.3,2.3,56,0.00,BKN,,0.00,WeatherDisplay:10.37,2013-04-28 04:21:00,
2013-04-27 22:26:00,54.9,40.8,29.70,SW,225,2.2,2.3,59,0.00,BKN,,0.00,WeatherDisplay:10.37,2013-04-28 04:26:00,
2013-04-27 22:31:00,54.7,40.6,29.70,West,270,2.4,2.4,59,0.00,BKN,,0.00,WeatherDisplay:10.37,2013-04-28 04:31:00,
2013-04-27 22:36:00,54.3,39.8,29.70,WNW,292,0.9,1.7,58,0.00,BKN,,0.00,WeatherDisplay:10.37,2013-04-28 04:36:00,
2013-04-27 22:41:00,54.1,40.5,29.70,North,360,0.0,1.1,60,0.00,BKN,,0.00,WeatherDisplay:10.37,2013-04-28 04:41:00,
2013-04-27 22:46:00,54.0,40.0,29.70,SSW,202,1.5,1.7,59,0.00,BKN,,0.00,WeatherDisplay:10.37,2013-04-28 04:46:00,
2013-04-27 22:51:00,54.0,40.4,29.69,WNW,292,1.6,2.3,60,0.00,BKN,,0.00,WeatherDisplay:10.37,2013-04-28 04:51:00,
2013-04-27 22:56:00,54.0,40.0,29.69,SSW,202,2.0,2.3,59,0.00,BKN,,0.00,WeatherDisplay:10.37,2013-04-28 04:56:00,
2013-04-27 23:01:00,53.8,41.5,29.69,SW,225,3.4,4.2,63,0.00,FEW,,0.00,WeatherDisplay:10.37,2013-04-28 05:01:00,
2013-04-27 23:06:00,53.8,40.2,29.69,SW,225,3.3,3.7,60,0.00,FEW,,0.00,WeatherDisplay:10.37,2013-04-28 05:06:00,
2013-04-27 23:11:00,53.4,40.7,29.69,WSW,248,2.2,3.5,62,0.00,FEW,,0.00,WeatherDisplay:10.37,2013-04-28 05:11:00,
2013-04-27 23:16:00,53.8,39.4,29.68,SW,225,2.2,2.3,58,0.00,FEW,,0.00,WeatherDisplay:10.37,2013-04-28 05:16:00,
2013-04-27 23:21:00,54.0,39.5,29.68,West,270,1.7,2.3,58,0.00,FEW,,0.00,WeatherDisplay:10.37,2013-04-28 05:21:00,
2013-04-27 23:26:00,54.0,40.0,29.68,SW,225,1.8,2.3,59,0.00,FEW,,0.00,WeatherDisplay:10.37,2013-04-28 05:26:00,
2013-04-27 23:31:00,54.0,40.0,29.68,West,270,2.7,3.5,59,0.00,FEW,,0.00,WeatherDisplay:10.37,2013-04-28 05:31:00,
2013-04-27 23:36:00,54.3,39.8,29.68,WNW,292,1.8,2.7,58,0.00,FEW,,0.00,WeatherDisplay:10.37,2013-04-28 05:36:00,
2013-04-27 23:41:00,54.1,39.6,29.68,WSW,248,1.9,2.3,58,0.00,FEW,,0.00,WeatherDisplay:10.37,2013-04-28 05:41:00,
2013-04-27 23:46:00,54.0,39.5,29.68,West,270,2.0,2.3,58,0.00,FEW,,0.00,WeatherDisplay:10.37,2013-04-28 05:46:00,
2013-04-27 23:51:00,53.8,39.4,29.68,WSW,248,1.7,2.3,58,0.00,FEW,,0.00,WeatherDisplay:10.37,2013-04-28 05:51:00,
2013-04-27 23:56:00,53.6,40.0,29.68,SW,225,2.7,2.7,60,0.00,FEW,,0.00,WeatherDisplay:10.37,2013-04-28 05:56:00,